Location: Boiro
(42.6475°N, 8.8834°W)
Time: 01:20:00
(UTC+01:00)

Tiros 1 despin weight - Pass Details

Date: 30 November 2021
Orbit: 592 x 641 km, 48.2° (Epoch: 23 January)

Event Time Altitude Azimuth Distance (km) Brightness Sun altitude
Rises 15:15:03 0° 214° (SSW) 2,823 ? 20.7°
Reaches altitude 10° 15:17:30 10° 204° (SSW) 1,919 ? 20.5°
Maximum altitude 15:21:25 32° 141° (SE) 1,021 ? 20.2°
Drops below altitude 10° 15:25:20 10° 78° (ENE) 1,921 ? 19.8°
Sets 15:27:47 0° 68° (ENE) 2,825 ? 19.6°
